This is the latest recevied weather packets stored in our database for station/object VK4CWL-13. If no packets are shown the sender has not sent any weather packets the latest 10 day(s).
| Time | Temp. | Humidity | Pressure | Rain* | Wind** | Luminosity | Snow |
|---|---|---|---|---|---|---|---|
| 1777604621 | 26.67° C | 46% | 1019.3 hPa | 0 mm | - | - | - |
| 1777604429 | 26.11° C | 46% | 1019.4 hPa | 0 mm | - | - | - |
| 1777604247 | 26.67° C | 45% | 1019.4 hPa | 0 mm | - | - | - |
| 1777603945 | 26.11° C | 46% | 1019.5 hPa | 0 mm | - | - | - |
| 1777603643 | 26.11° C | 46% | 1019.6 hPa | 0 mm | - | - | - |
| 1777603431 | 26.11° C | 46% | 1019.7 hPa | 0 mm | - | - | - |
| 1777603208 | 26.11° C | 46% | 1019.8 hPa | 0 mm | - | - | - |
| 1777602992 | 26.11° C | 46% | 1019.9 hPa | 0 mm | - | - | - |
| 1777602664 | 26.11° C | 46% | 1020.1 hPa | 0 mm | - | - | - |
| 1777602363 | 26.11° C | 46% | 1020 hPa | 0 mm | - | - | - |
| 1777602159 | 26.11° C | 48% | 1020.3 hPa | 0 mm | - | - | - |
| 1777602097 | 26.11° C | 48% | 1020.2 hPa | 0 mm | - | - | - |
| 1777601795 | 25.56° C | 48% | 1020.5 hPa | 0 mm | - | - | - |
| 1777601733 | 25.56° C | 48% | 1020.4 hPa | 0 mm | - | - | - |
| 1777601630 | 25.56° C | 47% | 1020.5 hPa | 0 mm | - | - | - |
| 1777601331 | 25.56° C | 47% | 1020.5 hPa | 0 mm | - | - | - |
| 1777601026 | 25.56° C | 48% | 1020.8 hPa | 0 mm | - | - | - |
| 1777600724 | 25.56° C | 49% | 1020.9 hPa | 0 mm | - | - | - |
| 1777600422 | 25° C | 49% | 1021 hPa | 0 mm | - | - | - |
| 1777600119 | 25° C | 49% | 1021.1 hPa | 0 mm | - | - | - |
| 1777599816 | 25° C | 50% | 1021.1 hPa | 0 mm | - | - | - |
| 1777599514 | 25° C | 51% | 1021.2 hPa | 0 mm | - | - | - |
| 1777599212 | 25° C | 49% | 1021.2 hPa | 0 mm | - | - | - |
| 1777598910 | 25° C | 52% | 1021.4 hPa | 0 mm | - | - | - |
| 1777598608 | 25° C | 51% | 1021.6 hPa | 0 mm | - | - | - |
* Rain since midnight (hover to see other rain measurements)
** Current wind speed in m/s (hover to see current wind gust speed)